Cando, ND

9:16 AM CDT on October 18, 2017 (GMT -0500)
Cando

Weather History for K9D7 - April, 2013

Change the Weather History Date:

Saturday, April 27, 2013

  Actual Average (KDVL) Record (KDVL)
Temperature  
Mean Temperature 44 °F -  
Max Temperature 53 °F 56 °F 93 °F (1952)
Min Temperature 35 °F 34 °F 15 °F (1956)
Degree Days  
Heating Degree Days 21    
Moisture  
Dew Point 37 °F    
Average Humidity 84    
Maximum Humidity 100    
Minimum Humidity 72    
Precipitation  
Precipitation 0.00 in - - ()
Sea Level Pressure  
Sea Level Pressure 29.78 in    
Wind  
Wind Speed 11 mph (SSW)    
Max Wind Speed 20 mph    
Max Gust Speed 23 mph    
Visibility 10 miles    
Events      
Averages and records for this station are not official NWS values.
T = Trace of Precipitation, MM = Missing Value Source: NWS Daily Summary

Daily Weather History Graph

Daily Weather History Graph

Search for Another Location

Airport or City:

Trip Planner

Search our weather history database for the weather conditions in past years. The results will help you decide how hot, cold, wet, or windy it might be!

Date:

Astronomy

Apr. 27, 2013 Rise Set
Actual Time 6:23 AM CDT 8:46 PM CDT
Civil Twilight 5:49 AM CDT 9:20 PM CDT
Nautical Twilight 5:06 AM CDT 10:04 PM CDT
Astronomical Twilight 4:16 AM CDT 10:54 PM CDT
Moon 11:26 PM CDT (4/27) 7:36 AM CDT (4/27)
Length of Visible Light 15h 31m
Length of Day
14h 22m
Waning Gibbous, 95% of the Moon is Illuminated
Apr 27
Waning Gibbous
May 2
Last Quarter
May 9
New
May 17
First Quarter
May 24
Full

Hourly Weather History & Observations

Time (CDT) Temp. Windchill Dew Point Humidity Pressure Visibility Wind Dir Wind Speed Gust Speed Precip Events Conditions
12:15 AM 37.4 °F 30.8 °F 35.6 °F 93% 29.95 in 10.0 mi South 9.2 mph - N/A   Clear
12:35 AM 39.2 °F 31.6 °F 35.6 °F 87% 29.95 in 10.0 mi SSW 12.7 mph - N/A   Clear
12:55 AM 39.2 °F 31.6 °F 33.8 °F 81% 29.94 in 10.0 mi SSW 12.7 mph - N/A   Clear
1:15 AM 39.2 °F 31.2 °F 33.8 °F 81% 29.94 in 10.0 mi South 13.8 mph - N/A   Mostly Cloudy
1:35 AM 41.0 °F 32.8 °F 33.8 °F 76% 29.93 in 10.0 mi South 16.1 mph - N/A   Overcast
1:55 AM 41.0 °F 31.9 °F 33.8 °F 76% 29.92 in 10.0 mi SSW 19.6 mph - N/A   Scattered Clouds
2:15 AM 41.0 °F 32.5 °F 33.8 °F 76% 29.91 in 10.0 mi South 17.3 mph 23.0 mph N/A   Scattered Clouds
2:35 AM 41.0 °F 32.5 °F 33.8 °F 76% 29.90 in 10.0 mi South 17.3 mph - N/A   Partly Cloudy
2:55 AM 41.0 °F 32.8 °F 33.8 °F 76% 29.90 in 10.0 mi South 16.1 mph - N/A   Clear
3:15 AM 39.2 °F 30.5 °F 33.8 °F 81% 29.88 in 10.0 mi South 16.1 mph - N/A   Clear
3:35 AM 39.2 °F 30.5 °F 33.8 °F 81% 29.88 in 10.0 mi SSW 16.1 mph - N/A   Clear
3:55 AM 39.2 °F 30.5 °F 33.8 °F 81% 29.87 in 10.0 mi SSW 16.1 mph - N/A   Clear
4:15 AM 39.2 °F 30.5 °F 33.8 °F 81% 29.87 in 10.0 mi SSW 16.1 mph - N/A   Clear
4:35 AM 39.2 °F 30.5 °F 33.8 °F 81% 29.86 in 10.0 mi SSW 16.1 mph - N/A   Clear
4:55 AM 39.2 °F 30.5 °F 33.8 °F 81% 29.85 in 10.0 mi SSW 16.1 mph - N/A   Scattered Clouds
5:15 AM 39.2 °F 31.2 °F 33.8 °F 81% 29.85 in 10.0 mi SSW 13.8 mph - N/A   Scattered Clouds
6:35 AM 37.4 °F 30.3 °F 33.8 °F 87% 29.83 in 10.0 mi South 10.4 mph - N/A   Clear
6:55 AM 37.4 °F 31.4 °F 33.8 °F 87% 29.82 in 10.0 mi SSW 8.1 mph - N/A   Clear
7:15 AM 37.4 °F 30.8 °F 33.8 °F 87% 29.82 in 10.0 mi SSW 9.2 mph - N/A   Scattered Clouds
7:35 AM 39.2 °F 32.0 °F 33.8 °F 81% 29.82 in 10.0 mi SSW 11.5 mph - N/A   Mostly Cloudy
7:55 AM 39.2 °F 32.5 °F 33.8 °F 81% 29.81 in 10.0 mi SSW 10.4 mph - N/A   Partly Cloudy
8:15 AM 39.2 °F 33.0 °F 33.8 °F 81% 29.81 in 10.0 mi SSW 9.2 mph - N/A   Partly Cloudy
8:35 AM 39.2 °F 33.0 °F 35.6 °F 87% 29.81 in 10.0 mi SSW 9.2 mph - N/A   Mostly Cloudy
8:55 AM 41.0 °F 35.8 °F 35.6 °F 81% 29.81 in 10.0 mi SW 8.1 mph - N/A   Scattered Clouds
9:15 AM 41.0 °F 35.2 °F 35.6 °F 81% 29.81 in 10.0 mi SW 9.2 mph - N/A   Partly Cloudy
9:35 AM 41.0 °F 34.3 °F 35.6 °F 81% 29.81 in 10.0 mi SW 11.5 mph - N/A   Scattered Clouds
9:55 AM 39.2 °F 33.6 °F 35.6 °F 87% 29.80 in 10.0 mi SW 8.1 mph - N/A   Mostly Cloudy
10:15 AM 39.2 °F 32.0 °F 35.6 °F 87% 29.79 in 10.0 mi SW 11.5 mph - N/A   Scattered Clouds
10:35 AM 41.0 °F 34.3 °F 35.6 °F 81% 29.79 in 10.0 mi SW 11.5 mph - N/A   Clear
10:55 AM 41.0 °F 33.1 °F 35.6 °F 81% 29.78 in 10.0 mi WSW 15.0 mph - N/A   Clear
11:15 AM 39.2 °F 31.6 °F 35.6 °F 87% 29.78 in 10.0 mi WSW 12.7 mph - N/A   Clear
11:35 AM 41.0 °F 33.5 °F 37.4 °F 87% 29.78 in 10.0 mi WSW 13.8 mph - N/A   Clear
11:55 AM 41.0 °F 33.1 °F 37.4 °F 87% 29.78 in 10.0 mi WSW 15.0 mph - N/A   Clear
12:15 PM 42.8 °F 34.8 °F 37.4 °F 81% 29.78 in 10.0 mi WSW 17.3 mph - N/A   Clear
12:35 PM 44.6 °F 37.4 °F 37.4 °F 76% 29.78 in 10.0 mi WSW 16.1 mph - N/A   Clear
12:55 PM 44.6 °F 37.8 °F 37.4 °F 76% 29.78 in 10.0 mi WSW 15.0 mph - N/A   Clear
1:15 PM 44.6 °F 38.8 °F 37.4 °F 76% 29.78 in 10.0 mi WSW 11.5 mph - N/A   Clear
1:35 PM 44.6 °F 38.1 °F 39.2 °F 81% 29.77 in 10.0 mi WSW 13.8 mph - N/A   Clear
1:55 PM 44.6 °F 38.8 °F 37.4 °F 76% 29.77 in 10.0 mi WSW 11.5 mph - N/A   Clear
2:15 PM 44.6 °F 39.7 °F 39.2 °F 81% 29.77 in 10.0 mi SW 9.2 mph - N/A   Clear
2:35 PM 44.6 °F 41.4 °F 39.2 °F 81% 29.77 in 10.0 mi WSW 5.8 mph - N/A   Clear
2:55 PM 46.4 °F 40.7 °F 39.2 °F 76% 29.76 in 10.0 mi SW 12.7 mph - N/A   Clear
3:15 PM 46.4 °F 40.7 °F 39.2 °F 76% 29.76 in 10.0 mi SW 12.7 mph - N/A   Clear
3:35 PM 48.2 °F - 41.0 °F 76% 29.76 in 10.0 mi SW 12.7 mph - N/A   Clear
3:55 PM 46.4 °F 41.9 °F 39.2 °F 76% 29.76 in 10.0 mi SW 9.2 mph - N/A   Clear
4:15 PM 46.4 °F 43.5 °F 41.0 °F 81% 29.76 in 10.0 mi SW 5.8 mph - N/A   Clear
4:35 PM 48.2 °F - 41.0 °F 76% 29.75 in 9.0 mi SW 6.9 mph - N/A   Clear
4:55 PM 48.2 °F - 41.0 °F 76% 29.74 in 10.0 mi SW 6.9 mph - N/A   Clear
5:15 PM 51.8 °F - 44.6 °F 76% 29.74 in 10.0 mi SW 3.5 mph - N/A   Clear
5:35 PM 53.6 °F - 44.6 °F 72% 29.74 in 10.0 mi South 3.5 mph - N/A   Clear
5:55 PM 50.0 °F - 42.8 °F 76% 29.74 in 10.0 mi South 5.8 mph - N/A   Clear
6:15 PM 51.8 °F - 46.4 °F 82% 29.73 in 10.0 mi South 4.6 mph - N/A   Clear
6:35 PM 46.4 °F 43.5 °F 44.6 °F 93% 29.72 in 10.0 mi South 5.8 mph - N/A   Clear
6:55 PM 46.4 °F 42.9 °F 42.8 °F 87% 29.72 in 10.0 mi South 6.9 mph - N/A   Clear
7:15 PM 41.0 °F 36.4 °F 41.0 °F 100% 29.71 in 10.0 mi SSE 6.9 mph - N/A   Clear
7:35 PM 42.8 °F 38.6 °F 41.0 °F 93% 29.70 in 10.0 mi SSE 6.9 mph - N/A   Clear
7:55 PM 41.0 °F 37.1 °F 39.2 °F 93% 29.69 in 10.0 mi SSE 5.8 mph - N/A   Clear
8:15 PM 39.2 °F 35.0 °F 39.2 °F 100% 29.68 in 10.0 mi SE 5.8 mph - N/A   Clear
8:35 PM 39.2 °F 35.9 °F 37.4 °F 93% 29.68 in 10.0 mi SE 4.6 mph - N/A   Clear
8:55 PM 39.2 °F - 39.2 °F 100% 29.68 in 10.0 mi Calm Calm - N/A   Clear
9:15 PM 39.2 °F 35.9 °F 37.4 °F 93% 29.67 in 10.0 mi South 4.6 mph - N/A   Scattered Clouds
9:35 PM 35.6 °F 29.9 °F 35.6 °F 100% 29.67 in 10.0 mi South 6.9 mph - N/A   Mostly Cloudy
9:55 PM 37.4 °F 34.9 °F 37.4 °F 100% 29.67 in 10.0 mi South 3.5 mph - N/A   Overcast
10:15 PM 39.2 °F 35.9 °F 37.4 °F 93% 29.67 in 10.0 mi SSE 4.6 mph - N/A   Overcast
10:35 PM 39.2 °F 37.0 °F 37.4 °F 93% 29.67 in 10.0 mi ENE 3.5 mph - N/A   Overcast
10:55 PM 39.2 °F - 37.4 °F 93% 29.66 in 10.0 mi Calm Calm - N/A   Mostly Cloudy
11:15 PM 39.2 °F 37.0 °F 37.4 °F 93% 29.66 in 10.0 mi South 3.5 mph - N/A   Mostly Cloudy
11:35 PM 39.2 °F 34.2 °F 37.4 °F 93% 29.65 in 10.0 mi South 6.9 mph - N/A   Partly Cloudy
11:55 PM 39.2 °F 33.6 °F 37.4 °F 93% 29.65 in 10.0 mi SW 8.1 mph - N/A   Partly Cloudy